Orbital Elements at Epoch 2459200.5 (2020-Dec-17.0) TDB
Reference: JPL 25 (heliocentric ecliptic J2000)
Element | Value | Uncertainty (1-sigma) | Units |
e | .1262675692965873 | 4.915e-08 | |
a | 2.728328398142634 | 1.5569e-08 | au |
q | 2.383829003066312 | 1.365e-07 | au |
i | 12.39255661727619 | 4.5519e-06 | deg |
node | 68.1509977403776 | 2.1283e-05 | deg |
peri | 314.9872949877398 | 2.6555e-05 | deg |
M | 229.5059912160493 | 1.7843e-05 | deg |
tp | 2459797.166237879143 (2022-Aug-05.66623788) | 8.4176e-05 | TDB |
period | 1646.051398360517 4.51 | 1.409e-05 3.858e-08 | d yr |
n | .2187051998246005 | 1.8721e-09 | deg/d |
Q | 3.072827793218956 | 1.7535e-08 | au |
|
| | Orbit Determination Parameters
Additional Information
|